Showing default

CARTOSAT 2F, 43111

Orbit data source: Space-Track

CARTOSAT 2F, 43111 is a payload satellite owned by ISRO (IN) in SSO that was launched on Fri, 12 Jan 2018 UTC via a PSLV-XL launch vehicle from the Sirharikota (SRI). Payload-class satellites include a variety of spacecraft equipped with specific instruments for various scientific and technological missions. These include communications satellites like Starlink; space stations such as the ISS; scientific satellites like the Hubble; Earth observation satellites from companies like Planet Labs, Umbra, and HawkEye 360; GPS; miniature CubeSats for education and research; and military/defense satellites.

Loading next visibility...
Identifier
43111, 2018-004A
Orbit
SSO
Country
Flag of ININ / IND
Related business
Manufacturer
ISRO
Mission
Operational Defense Imaging
Bus & Motor
IRS-2, AOCS
Mass
712 kg wet, 639 kg dry
Launch date (UTC)
2018-01-12 (8 years ago)
Launch vehicle
PSLV-XL
Launch site
Sirharikota (SRI)
Object type
Payload
Rocket body
Debris
Shape & HBR
Hex Cyl + 2 Pan, 4.0 m
Radar Cross Section
9.780 m², Large (>1 m²)

Expand to show TLE details & history
Last TLE update: 10 hours ago

TLE from 10 hours ago
0 CARTOSAT 2F
1 43111U 18004A   26035.82230138  .00004634  00000-0  22292-3 0  9993
2 43111  97.4228  97.5597 0001710  22.1539 337.9769 15.19271569447237
Epoch: 2026-02-04T19:44Z
TLE epoch observation values (Epoch: 2026-02-04T19:44:06.839Z)
Latitude
-0.00003°
Longitude
26.54784°
Altitude
510.038 km
Speed
7.609 km/s
True Right ascension
06h 30m 14s
True Declination
0° 00' 00"
Sunlit
Object was in full shadow at epoch
Visualization orbit readout
Latitude
Unknown
Longitude
Unknown
Altitude
Unknown
Speed
Unknown
Apparent Right ascension
Unknown
Apparent Declination
Unknown
Sunlit
N/A
Visualization observer readout
Local Sidereal Time
07:52:47
Azimuth
Unknown
Elevation
Unknown
Doppler factor
Unknown
Orbital elements
Apogee altitude
506.185 km
Perigee altitude
503.831 km
Semi-major axis
6,883.145 km
Eccentricity
0.00017
Inclination
97.4228°
RAAN
97.5597°
Arg. of periapsis
22.1539°
True anomaly
337.96955°
Mean anomaly
337.9769°
Eccentric anomaly
337.97323°
Mean motion
3.80069 °/min
Orbital period
94.72 mins
BSTAR
0.00022292
Loading maneuver chart data...
Computing Atmospheric mass density...

Documentation

Showing up to 5 results
|